Simultaneous Nadir Overpasses (SNOs) Predictions

Prediction of SNOs between NOAA-15 and METOP-C Satellite Orbit:

Table of predicted SNOs for the next 14.0 days since TLE Epoch: 5/24/2023
Index Date (NOAA-15) Time (NOAA-15) Lat,Lon (NOAA-15) SZA (NOAA-15 ) Date (METOP-C) Time (METOP-C) Lat,Lon (METOP-C) SZA (METOP-C ) Distance(km) Time Diff (sec)
1 06/06/2023 04:41:26 -81.09, -31.98 119.49 06/06/2023 04:40:13 -81.08, -32.15 119.54 3.11 73
2 06/06/2023 05:31:53 81.09, 135.22 60.50 06/06/2023 05:30:53 81.08, 135.33 60.48 2.25 60
3 06/06/2023 06:22:27 -81.09, -57.24 119.50 06/06/2023 06:21:34 -81.08, -57.30 119.53 1.15 53
4 06/06/2023 07:12:53 81.08, 110.34 60.52 06/06/2023 07:12:14 81.09, 110.18 60.49 3.05 39
5 06/06/2023 08:03:28 -81.09, -82.50 119.50 06/06/2023 08:02:55 -81.09, -82.46 119.51 0.89 33
6 06/06/2023 08:53:55 81.09, 84.71 60.48 06/06/2023 08:53:36 81.08, 84.65 60.46 1.62 19
7 06/06/2023 09:44:29 -81.09,-107.75 119.51 06/06/2023 09:44:16 -81.10,-107.61 119.49 2.83 13
8 06/06/2023 10:34:56 81.09, 59.45 60.48 06/06/2023 10:34:57 81.09, 59.50 60.48 0.95 1
9 06/06/2023 11:25:30 -81.09,-133.01 119.52 06/06/2023 11:25:38 -81.09,-133.13 119.53 2.16 8
10 06/06/2023 12:15:57 81.09, 34.19 60.47 06/06/2023 12:16:18 81.10, 34.34 60.49 2.61 21
11 06/06/2023 13:06:31 -81.09,-158.27 119.53 06/06/2023 13:06:59 -81.10,-158.29 119.51 1.33 28
12 06/06/2023 13:56:58 81.09, 8.93 60.46 06/06/2023 13:57:40 81.09, 8.82 60.46 2.13 42
13 06/06/2023 14:47:33 -81.10, 176.10 119.56 06/06/2023 14:48:21 -81.09, 176.19 119.54 1.99 48
14 06/06/2023 15:37:59 81.09, -16.32 60.45 06/06/2023 15:39:01 81.10, -16.34 60.48 0.34 62



Historial Predications of SNOs between NOAA-15 and METOP-C
